User: anonymous   Login
Location: Fishcreek Rd Observing Site
(41.1865°N, 81.4271°W)
Time: 05:22:14
(UTC-05:00)
Language:

Iridium 75 - Orbit

View from above orbital plane
View from above orbital plane
View from above satellite
View from above satellite

Ground track
Ground track

The orbit data is extracted from the following two-line orbital elements,

1 25346U 98032E   15063.89449199  .00000352  00000-0  11861-3 0  9990
2 25346 086.3976 213.2104 0001997 095.4975 069.4585 14.34216658879943
Epoch (UTC): 04 March 2015 21:28:04
Eccentricity: 0.0001997
inclination: 86.3976°
perigee height: 776 km
apogee height: 779 km
right ascension of ascending node: 213.2104°
argument of perigee: 95.4975°
revolutions per day: 14.34216658
mean anomaly at epoch: 69.4585°
orbit number at epoch: 87994

The dashed part of the orbit path shows where the satellite is in the earth's shadow,  

DLR